Flag for Germany Weather past 2 weeks in Wertheim, Baden-Württemberg, Germany

Now
75 °F

Passing clouds.


Feels Like: 78 °F
Forecast: 55 / 79 °F
Wind: 2 mph from Southwest

Location: Wuerzburg

Current Time: Jul 25, 2014 at 1:42:46 PM

Latest Report: Jul 25, 2014 at 1:00 PM


Visibility: 25 mi

Pressure: 29.89 "Hg

Humidity: 53%

Dew point: 57 °F

Location of WertheimLocation

Historic Weather in Wertheim — Graph

°F

Wertheim temperature yesterday

Maximum temperature yesterday: 81 °F (at 4:00 PM)
Minimum temperature yesterday: 61 °F (at 5:00 AM)
Average temperature yesterday: 71 °F

Past Weeks' High & Low Weather Summary

 TemperatureHumidityPressure
High90 °F (Jul 19, 5:00 PM)99% (Jul 11, 5:00 AM)30.18 "Hg (Jul 11, 5:00 AM)
Low57 °F (Jul 15, 6:00 AM)28% (Jul 19, 4:00 PM)29.78 "Hg (Jul 13, 7:00 PM)
Average70 °F69%29.93 "Hg
* Reported Jul 10 12:00 Noon — Jul 25 12:00 Noon, Wertheim, Weather by CustomWeather, © 2014

Note: Actual official high and low records may vary slightly from our data, if they occured in-between our weather recording intervals... More about our weather records

Advertising

Wertheim weather history for previous 24 hours

 ConditionsComfort  
Time TempWeatherWind HumidityBarometerVisibility
12:00 PM
Jul 25
72 °FPassing clouds.2 mph59%29.91 "Hg22 mi
11:00 AM68 °FScattered clouds.2 mph66%29.92 "Hg19 mi
10:00 AM67 °FPartly sunny.3 mph72%29.92 "Hg16 mi
9:00 AM65 °FScattered clouds.1 mph79%29.93 "Hg12 mi
8:00 AM61 °FPartly sunny.2 mph86%29.93 "Hg17 mi
7:00 AM61 °FPartly sunny.2 mph83%29.92 "Hg16 mi
6:00 AM58 °FScattered clouds.2 mph90%29.94 "Hg19 mi
5:00 AM58 °FPassing clouds.2 mph89%29.94 "Hg22 mi
4:00 AM59 °FPassing clouds.3 mph85%29.93 "Hg22 mi
3:00 AM60 °FPassing clouds.2 mph82%29.92 "Hg25 mi
2:00 AM61 °FPassing clouds.2 mph78%29.93 "Hg25 mi
1:00 AM64 °FPassing clouds.3 mph72%29.92 "Hg25 mi
12:00 AM66 °FPassing clouds.3 mph66%29.92 "Hg28 mi
11:00 PM
Jul 24
68 °FPassing clouds.5 mph61%29.91 "Hg31 mi
10:00 PM69 °FPassing clouds.6 mph58%29.89 "Hg31 mi
9:00 PM72 °FPartly sunny.6 mph54%29.87 "Hg37 mi
8:00 PM75 °FPartly sunny.7 mph50%29.85 "Hg37 mi
7:00 PM77 °FPartly sunny.5 mph40%29.84 "Hg34 mi
6:00 PM79 °FPartly sunny.5 mph38%29.84 "Hg37 mi
5:00 PM78 °FPartly sunny.3 mph38%29.85 "Hg37 mi
4:00 PM81 °FScattered clouds.5 mph33%29.85 "Hg34 mi
3:00 PM80 °FScattered clouds.3 mph36%29.86 "Hg31 mi
2:00 PM79 °FScattered clouds.5 mph44%29.88 "Hg31 mi
1:00 PM78 °FScattered clouds.5 mph44%29.88 "Hg31 mi
Weather by CustomWeather, © 2014

See weather overviewHow to use our weather pages